Flag for Canada Weather past 2 weeks in Fort Simpson, Northwest Territories, Canada

Now
-15 °F

Light snow. Overcast.


Feels Like: -29 °F
Forecast: -13 / -10 °F
Wind: 6 mph from Northeast

Location: Fort Simpson

Current Time: Dec 26, 2014 at 7:25:45 AM

Latest Report: Dec 26, 2014 at 6:00 AM


Visibility: 15 mi

Pressure: 30.22 "Hg

Humidity: 76%

Dew point: -20 °F

Location of Fort SimpsonLocation

Historic Weather in Fort Simpson — Graph

°F

Fort Simpson temperature yesterday

Maximum temperature yesterday: -2 °F (at 12:00 AM)
Minimum temperature yesterday: -15 °F (at 9:00 PM)
Average temperature yesterday: -9 °F

Past Weeks' High & Low Weather Summary

 TemperatureHumidityPressure
High9 °F (Dec 23, 12:00 PM)92% (Dec 20, 6:00 PM)30.39 "Hg (Dec 20, 6:00 PM)
Low-18 °F (Dec 19, 12:00 AM)43% (Dec 21, 1:00 AM)29.61 "Hg (Dec 20, 2:00 PM)
Average-4 °F76%29.90 "Hg
* Reported Dec 11 6:00 AM — Dec 26 6:00 AM, Fort Simpson, Weather by CustomWeather, © 2014

Note: Actual official high and low records may vary slightly from our data, if they occured in-between our weather recording intervals... More about our weather records

Advertising

Fort Simpson weather history for previous 24 hours

 ConditionsComfort  
Time TempWeatherWind HumidityBarometerVisibility
6:00 AM
Dec 26
-15 °FLight snow. Overcast.6 mph76%30.22 "Hg15 mi
5:00 AM-15 °FLight snow. Overcast.6 mph76%30.23 "Hg15 mi
4:00 AM-15 °FLight snow. Overcast.8 mph76%30.24 "Hg15 mi
3:00 AM-15 °FLight snow. Overcast.12 mph76%30.23 "Hg15 mi
2:00 AM-15 °FLight snow. Overcast.6 mph76%30.23 "Hg15 mi
1:00 AM-15 °FLight snow. Overcast.6 mph69%30.23 "Hg15 mi
12:00 AM-15 °FLight snow. Overcast.6 mph69%30.23 "Hg15 mi
11:00 PM
Dec 25
-15 °FLight snow. Overcast.8 mph69%30.24 "Hg15 mi
10:00 PM-15 °FLight snow. Overcast.8 mph69%30.23 "Hg15 mi
9:00 PM-15 °FLight snow. Overcast.8 mph76%30.23 "Hg15 mi
8:00 PM-13 °FLight snow. Overcast.3 mph69%30.24 "Hg15 mi
7:00 PM-13 °FLight snow. Overcast.6 mph76%30.23 "Hg15 mi
6:00 PM-13 °FPassing clouds.6 mph76%30.22 "Hg15 mi
5:00 PM-11 °FPassing clouds.6 mph70%30.22 "Hg15 mi
4:00 PM-11 °FPassing clouds.6 mph76%30.22 "Hg15 mi
3:00 PM-11 °FOvercast.6 mph76%30.22 "Hg15 mi
2:00 PM-9 °FScattered clouds.6 mph70%30.20 "Hg15 mi
1:00 PM-9 °FPartly sunny.3 mph77%30.18 "Hg15 mi
12:00 PM-9 °FPartly sunny.3 mph77%30.21 "Hg15 mi
11:00 AM-9 °FLight snow. Partly sunny.6 mph77%30.21 "Hg15 mi
10:00 AM-9 °FSnow. Passing clouds.3 mph77%30.19 "Hg15 mi
9:00 AM-8 °FLight snow. Overcast.2 mph77%30.17 "Hg10 mi
8:00 AM-8 °FLight snow. Overcast.6 mph70%30.17 "Hg4 mi
7:00 AM-8 °FLight snow. Overcast.3 mph77%30.16 "Hg4 mi
Weather by CustomWeather, © 2014

See weather overviewHow to use our weather pages